AirNav   Bose ProFlight Aviation Headset
 
 1734 users online  

KGDY Grundy Municipal Airport
Grundy, Virginia, USA

GOING TO GRUNDY?


FAA INFORMATION EFFECTIVE 13 SEPTEMBER 2018

Location

FAA Identifier: GDY
Lat/Long: 37-13-56.6150N / 082-07-29.9880W
37-13.943583N / 082-07.499800W
37.2323931 / -82.1249967
(estimated)
Elevation: 2304 ft. / 702.3 m (surveyed)
Variation: 06W (2000)
From city: 3 miles SW of GRUNDY, VA
Time zone: UTC -4 (UTC -5 during Standard Time)
Zip code: 24656

Airport Operations

Airport use: Open to the public
Control tower: no
ARTCC: INDIANAPOLIS CENTER
FSS: LEESBURG FLIGHT SERVICE STATION
NOTAMs facility: DCA (NOTAM-D service available)
Attendance: UNATNDD
Wind indicator: yes
Segmented circle: no
Lights: ACTVT MIRL RY 04/22 - CTAF; HIGH INTSTY ONLY.
Beacon: white-green (lighted land airport)
Operates sunset to sunrise.

Airport Communications

CTAF/UNICOM: 123.0
WX AWOS-3 at JFZ (19 nm SE): 118.075 (276-596-9927)
  • APCH/DEP SERVICE PRVDD BY INDIANAPOLIS ARTCC ON FREQS 126.575/257.850 (LYNCH RCAG).

Nearby radio navigation aids

VOR radial/distance  VOR name  Freq  Var
GZGr357/24.5GLADE SPRING VOR/DME110.2002W

Airport Services

Parking: tiedowns
Airframe service: NONE
Powerplant service: NONE
Bottled oxygen: NONE
Bulk oxygen: NONE

Runway Information

Runway 4/22

Dimensions: 2256 x 60 ft. / 688 x 18 m
Surface: asphalt, in good condition
Weight bearing capacity: 
Single wheel: 7.0
Runway edge lights: medium intensity
RUNWAY 4  RUNWAY 22
Latitude: 37-13.796083N37-14.091083N
Longitude: 082-07.641217W082-07.358383W
Elevation: 2304.0 ft.2304.0 ft.
Traffic pattern: leftleft
Runway heading: 043 magnetic, 037 true223 magnetic, 217 true
Markings: basic, in fair conditionbasic, in fair condition
Visual slope indicator: panels that may or may not be lighted, on left
FADED BUT USABLE.
panels that may or may not be lighted, on left
FADED BUT USBL.
Touchdown point: yes, no lightsyes, no lights

Airport Ownership and Management from official FAA records

Ownership: Publicly-owned
Owner: TOWN OF GRUNDY
1103 PLAZA DRIVE, SUITE D
GRUNDY, VA 24614
Phone 276-935-2551
Manager: JAMES KEEN
1103 PLAZA DRIVE, SUITE D
GRUNDY, VA 24614
Phone 276-935-2551

Airport Operational Statistics

Aircraft based on the field: 12
Single engine airplanes: 11
Multi engine airplanes: 1
    
Aircraft operations: avg 89/week *
91% local general aviation
9% transient general aviation
* for 12-month period ending 31 July 2015

Additional Remarks

PAY PHONE AT AIRPORT 276-935-8022.
WILDLIFE INVOF ARPT.

Instrument Procedures

There are no published instrument procedures at KGDY.

Some nearby airports with instrument procedures:

KJFZ - Tazewell County Airport (19 nm SE)
KLNP - Lonesome Pine Airport (24 nm SW)
KEBD - Appalachian Regional Airport (27 nm N)
KPBX - Pike County Airport-Hatcher Field (29 nm NW)
KVJI - Virginia Highlands Airport (33 nm S)
 
Loc | Ops | Rwys | IFR | FBO | Links
Com | Nav | Svcs | Stats | Notes


 
Area around KGDY (Grundy Municipal Airport)
 
Road maps at: MapQuest Bing Google
 
Aerial photo
WARNING: Photo may not be current or correct
Aerial photo of KGDY (Grundy Municipal Airport)
Photo by Chris Berg
Photo taken 23-Jun-2013
looking northeast.

Do you have a better or more recent aerial photo of Grundy Municipal Airport that you would like to share? If so, please send us your photo.

 
Sectional chart

 
Airport distance calculator
Flying to Grundy Municipal Airport? Find the distance to fly.

From to KGDY

Sunrise and sunset
Times for 19-Sep-2018
 Local
(UTC-4)
 Zulu
(UTC)
Morning civil twilight06:4910:49
Sunrise07:1511:15
Sunset19:3023:30
Evening civil twilight19:5623:56

Current date and time
Zulu (UTC)  19-Sep-2018 18:12:38
Local (UTC-4)  19-Sep-2018 14:12:38
 
METAR
KJFZ 
19nm SE 
191755Z AUTO 27006KT 10SM SCT034 BKN042 BKN050 25/18 A3013 RMK AO2 T02520182 10256 20157
KLNP 
25nm SW 
191755Z AUTO 31004KT 10SM SCT039 27/17 A3015 RMK AO2
KPBX 
29nm NW 
191755Z AUTO 30003KT 10SM SCT036 29/20 A3006 RMK AO2 T02890200 10289 20190
KVJI 
34nm S 
191755Z AUTO 00000KT 10SM SCT028 BKN038 BKN048 28/21 A3010 RMK AO2 T02750209 10275 20178
KI16 
35nm NE 
191750Z AUTO 10SM CLR 29/19 A3012 RMK AO2 T02910186 10291 20171
TAF
KSJS 
40nm NW 
191723Z 1918/2018 VRB03KT P6SM SCT050 FM200500 00000KT P6SM SKC FM201700 VRB03KT P6SM SCT040
KBLF 
44nm E 
191720Z 1918/2018 32006KT P6SM FEW050 FM200000 VRB03KT P6SM FEW080 FM200700 00000KT 3SM BR FEW250 FM200800 00000KT P6SM FEW250
KTRI 
47nm S 
191730Z 1918/2018 19003KT P6SM FEW030 FM200000 00000KT P6SM SKC FM200800 00000KT 3SM BR FEW250 TEMPO 2010/2012 1SM BR SCT001 FM201300 VRB03KT P6SM FEW020 FEW250
NOTAMs
Click for the latest NOTAMs
NOTAMs are issued by the DoD/FAA and will open in a separate window not controlled by AirNav.

 

 
 

Aviation Businesses, Services, and Facilities

  
 Business Name 
 
 Contact 
 
 Services / Description 
 
Distance
 
Comments
  
Standard Aviation 276-935-5119
no information available

If you are affiliated with Standard Aviation and would like to show here your services, contact info, web link, logo, and more, click here
on airport  
   write
 

Would you like to see your business listed on this page?

 If your business provides an interesting product or service to pilots, flight crews, aircraft, or users of the Grundy Municipal Airport, you should consider listing it here.  To start the listing process, click on the button below
 
Add a business
 

Other Pages about Grundy Municipal Airport

www.flyvirginia.com/...
 
Update a link
 
Copyright © AirNav, LLC. All rights reserved. Privacy Policy  Contact